Temperature
8 7 7 7 6 6 5 5 4 3 3 3 3 2 1 1 0 -0 -1 -1 -1 -1 -1 -1 -2 -2 -3 -4 -4 -4 -4 -4 -4 -4 -4 -3 -3 -2
7 6 5 5 5 4 4 3 2 2 1 1 1 0 -0 -0 -0 -1 -1 -2 -2 -2 -2 -2 -3 -3 -4 -4 -5 -5 -5 -5 -5 -4 -4 -4 -3 -3
5 5 4 3 3 3 2 2 1 0 -0 -0 -1 -1 -1 -1 -1 -2 -2 -3 -3 -3 -3 -3 -4 -4 -5 -5 -5 -5 -5 -5 -5 -5 -5 -4 -4 -4
4 3 3 3 2 2 1 0 -0 -1 -2 -2 -2 -2 -2 -3 -3 -3 -4 -4 -4 -4 -4 -4 -4 -5 -5 -5 -5 -6 -6 -6 -6 -5 -5 -5 -5 -5
3 2 2 2 1 1 -0 -1 -2 -2 -3 -3 -3 -4 -4 -4 -4 -5 -5 -5 -5 -5 -4 -4 -5 -5 -5 -6 -6 -6 -6 -6 -6 -6 -6 -6 -6 -5
2 2 2 1 0 -0 -1 -2 -2 -3 -4 -4 -5 -6 -6 -6 -6 -6 -7 -6 -6 -5 -5 -5 -5 -5 -5 -5 -5 -5 -5 -5 -5 -6 -6 -6 -6 -6
1 1 1 -0 -1 -2 -2 -3 -4 -4 -5 -6 -6 -7 -7 -7 -7 -8 -8 -8 -7 -6 -5 -5 -5 -5 -5 -5 -5 -5 -5 -5 -6 -6 -6 -6 -6 -6
1 0 -1 -2 -2 -3 -3 -4 -5 -6 -6 -7 -8 -8 -8 -8 -8 -9 -9 -9 -9 -8 -7 -7 -6 -6 -5 -5 -5 -5 -5 -6 -6 -6 -7 -7 -6 -6
-1 -1 -2 -3 -3 -4 -4 -4 -5 -6 -7 -8 -8 -8 -8 -8 -9 -9 -9 -9 -9 -8 -8 -8 -6 -6 -6 -6 -5 -5 -6 -6 -6 -6 -6 -7 -7 -7
-2 -3 -3 -3 -4 -4 -5 -6 -6 -7 -7 -8 -8 -8 -9 -9 -9 -9 -9 -9 -9 -8 -8 -8 -6 -6 -6 -6 -6 -5 -5 -6 -6 -6 -6 -7 -7 -7
-3 -4 -4 -4 -5 -6 -8 -8 -8 -8 -8 -8 -8 -8 -8 -8 -9 -9 -9 -9 -9 -8 -8 -8 -7 -7 -7 -6 -5 -5 -6 -6 -6 -6 -6 -6 -6 -7
-4 -5 -5 -6 -7 -8 -9 -9 -8 -8 -8 -8 -7 -7 -8 -8 -8 -8 -8 -9 -9 -9 -8 -9 -8 -9 -9 -7 -6 -6 -6 -6 -6 -6 -6 -6 -6 -7
-5 -6 -6 -7 -8 -9 -9 -9 -9 -9 -9 -8 -8 -7 -7 -7 -7 -8 -8 -8 -9 -9 -8 -9 -9 -9 -10 -10 -7 -6 -6 -6 -6 -6 -6 -6 -6 -7
-7 -7 -7 -8 -9 -9 -9 -8 -9 -9 -8 -8 -8 -7 -7 -7 -7 -7 -8 -8 -8 -8 -8 -9 -9 -9 -10 -10 -9 -7 -6 -6 -6 -6 -6 -6 -7 -7
-8 -8 -9 -8 -8 -8 -8 -8 -8 -8 -8 -8 -8 -8 -8 -7 -7 -7 -7 -7 -7 -7 -7 -8 -8 -9 -10 -10 -9 -8 -7 -6 -6 -6 -6 -7 -7 -7
-8 -8 -8 -8 -8 -8 -8 -8 -8 -8 -8 -8 -8 -8 -8 -8 -8 -8 -8 -7 -7 -6 -6 -7 -8 -8 -9 -9 -9 -8 -7 -7 -6 -6 -7 -7 -6 -6
-8 -8 -8 -8 -8 -8 -8 -8 -8 -8 -8 -8 -8 -8 -8 -8 -7 -8 -7 -7 -8 -7 -6 -6 -7 -7 -8 -8 -8 -7 -7 -7 -7 -7 -8 -8 -7 -6
-8 -8 -8 -8 -8 -8 -8 -8 -8 -8 -8 -8 -8 -8 -8 -8 -8 -7 -7 -7 -7 -7 -7 -7 -7 -7 -7 -8 -7 -8 -7 -7 -7 -7 -8 -9 -8 -6
-9 -9 -9 -9 -9 -9 -8 -8 -8 -8 -8 -8 -8 -8 -8 -8 -8 -7 -7 -7 -7 -7 -7 -7 -8 -9 -10 -10 -8 -7 -8 -8 -8 -8 -8 -8 -8 -6
-9 -9 -9 -9 -9 -9 -8 -8 -8 -8 -8 -8 -8 -8 -8 -8 -7 -7 -7 -7 -8 -8 -7 -7 -8 -8 -9 -9 -9 -7 -7 -8 -8 -8 -8 -7 -7 -6
-9 -9 -9 -9 -9 -9 -8 -8 -8 -8 -8 -8 -8 -8 -8 -8 -8 -7 -8 -8 -8 -8 -8 -8 -7 -8 -8 -9 -9 -8 -6 -6 -7 -8 -7 -7 -7 -7
-9 -9 -9 -9 -9 -8 -8 -8 -8 -8 -8 -8 -8 -8 -8 -8 -8 -8 -8 -8 -8 -8 -8 -8 -7 -8 -8 -9 -9 -8 -6 -5 -5 -6 -6 -6 -7 -7
-9 -9 -9 -9 -9 -8 -8 -8 -8 -8 -8 -8 -8 -8 -8 -8 -8 -8 -8 -8 -8 -8 -8 -8 -8 -8 -8 -8 -8 -8 -7 -6 -6 -5 -4 -5 -6 -6
Wind_Speed
9 9 6 5 5 5 4 3 4 2 3 3 2 2 6 5 9 11 10 16 21 22 23 23 23 23 23 24 25 25 25 25 25 26 26 27 27 27
8 10 8 5 5 5 4 3 2 3 3 3 4 3 4 7 12 13 14 19 20 21 22 23 23 24 24 25 25 25 26 26 27 27 27 28 28 28
10 10 9 7 5 4 3 2 1 2 5 4 3 3 3 6 11 14 15 15 16 20 24 25 25 24 24 25 25 26 26 26 27 27 28 28 28 28
11 10 9 6 6 4 2 2 2 4 5 7 4 3 5 6 7 8 12 14 15 21 24 24 24 24 24 24 25 25 26 26 27 28 28 28 29 30
10 9 7 6 4 3 3 3 3 4 5 6 6 4 5 6 6 7 9 11 16 19 21 22 23 23 23 24 25 26 27 28 28 28 29 29 30 30
9 8 6 4 3 3 3 5 5 5 5 6 6 5 5 6 5 6 9 6 9 14 19 20 21 22 24 26 27 28 28 28 28 28 29 29 29 30
8 6 4 2 3 4 4 5 5 5 5 5 6 5 5 5 6 6 11 9 9 10 9 8 11 12 18 24 26 27 28 28 28 28 29 29 30 30
6 4 2 1 1 3 6 7 7 5 5 5 5 7 7 7 7 9 10 11 8 4 5 9 8 12 11 16 24 28 29 29 29 29 30 30 30 30
5 3 2 1 2 2 6 8 9 12 12 8 7 8 8 9 9 11 11 12 12 7 9 15 9 13 11 20 27 29 30 31 30 30 29 28 28 29
4 3 1 1 3 6 5 5 6 7 9 7 8 10 10 10 11 12 11 10 9 8 7 11 12 12 13 13 26 30 31 29 28 27 26 27 27 28
3 1 1 3 8 11 5 4 6 6 11 16 18 18 20 21 18 9 7 9 12 9 5 6 6 7 9 12 18 24 24 25 26 28 29 29 29 28
1 1 4 7 10 11 5 4 6 7 8 9 10 13 13 15 17 8 5 7 8 7 4 4 4 5 7 5 7 10 15 23 28 29 29 29 28 18
0 2 4 9 11 12 10 3 9 10 4 5 7 8 7 6 6 6 6 7 10 9 6 4 6 5 7 8 5 8 11 13 14 18 24 27 27 21
2 3 5 11 12 12 9 11 14 10 4 5 6 7 7 8 8 7 10 11 13 14 15 12 10 10 11 14 11 7 8 10 13 15 13 20 21 23
3 7 9 11 11 8 10 12 9 4 5 6 7 8 7 8 9 9 9 9 12 16 19 16 13 12 12 13 12 13 12 11 12 12 10 10 11 11
3 5 8 9 8 8 8 7 5 5 6 6 8 9 9 8 9 8 9 10 11 11 9 14 12 13 13 15 15 17 15 10 9 10 12 13 13 12
2 2 3 4 5 5 6 5 5 6 6 7 8 9 10 10 10 7 6 7 8 11 14 9 8 11 15 15 15 17 16 15 14 13 13 15 14 13
5 3 4 5 5 6 7 8 7 6 7 7 8 9 9 10 11 9 8 9 11 12 13 13 12 11 8 10 18 17 15 15 14 13 13 16 17 13
3 4 4 5 5 6 6 7 7 7 7 7 8 9 9 10 10 11 10 10 11 13 13 12 11 11 14 16 9 14 14 15 15 15 14 14 17 15
3 4 5 5 6 6 7 7 8 8 7 8 8 9 9 9 10 11 11 12 13 14 14 12 10 11 13 16 15 16 16 15 14 16 15 14 15 19
5 5 5 6 6 6 7 7 8 9 9 9 9 9 9 10 11 11 12 17 16 13 15 14 13 19 14 11 13 14 13 13 16 16 16 15 16 14
5 6 6 6 7 7 7 7 8 9 9 9 9 9 10 10 12 14 13 13 13 14 15 15 14 13 11 14 16 17 19 18 17 21 21 19 13 8
6 7 7 7 7 7 7 8 9 9 9 9 10 10 11 11 12 12 13 14 14 15 15 15 13 11 12 13 15 16 19 19 16 15 15 17 20 23
Wind_Direction
125 119 110 102 91 85 94 118 143 189 257 264 256 220 223 265 309 317 308 309 307 305 302 299 296 294 292 290 289 287 286 285 284 283 280 278 277 275
121 114 106 98 89 87 93 89 110 168 234 245 244 245 260 287 300 308 303 305 307 304 299 297 295 293 291 288 287 286 285 284 283 281 280 279 277 276
116 112 109 106 104 100 100 108 141 176 242 265 251 262 269 277 290 294 295 290 287 298 299 296 294 292 290 289 288 286 285 283 282 280 279 279 278 278
115 113 115 115 115 122 133 171 203 211 234 267 265 261 259 269 273 279 291 292 289 296 296 295 295 293 292 290 288 287 285 284 283 281 280 278 277 276
114 116 119 122 133 149 174 202 222 231 226 250 268 252 259 266 275 277 279 282 288 292 294 295 294 293 292 292 292 291 289 286 283 281 278 276 275 274
106 109 115 125 151 181 209 222 228 236 238 248 263 263 259 261 264 281 293 278 284 289 287 287 288 291 292 293 292 290 287 285 282 279 276 274 272 270
102 100 106 139 209 222 229 225 222 234 245 253 265 271 272 275 277 280 293 293 281 272 274 272 276 278 282 285 287 286 284 282 280 278 277 275 273 271
99 96 110 152 358 330 306 289 268 250 244 244 261 270 278 274 277 283 289 296 295 257 269 284 277 282 281 278 283 285 285 285 283 282 280 278 276 273
111 116 107 74 31 303 299 300 296 293 289 284 281 278 280 278 278 281 278 279 282 279 290 291 281 281 280 281 285 286 287 287 286 284 282 279 276 273
116 123 125 304 303 292 263 261 261 270 281 281 262 265 268 269 265 275 284 288 280 274 267 281 286 281 281 277 283 285 286 286 286 285 284 282 280 277
102 117 280 281 302 309 304 276 275 274 291 294 294 293 296 300 302 300 295 295 295 288 258 263 280 284 280 275 275 280 283 286 288 288 286 284 280 278
97 316 317 314 311 315 307 283 284 280 278 288 295 297 295 294 298 290 276 281 287 290 249 247 275 302 295 259 252 267 278 283 284 284 283 282 281 280
249 281 288 316 319 320 324 312 294 303 300 300 297 294 293 288 285 271 258 262 276 274 270 268 275 266 269 287 273 259 267 275 280 280 282 281 280 277
292 279 287 317 328 330 327 312 312 323 330 306 300 299 300 300 299 291 280 268 261 266 272 272 273 276 279 284 287 280 268 269 273 277 275 278 279 276
302 319 329 335 336 332 321 324 335 332 307 303 301 299 296 291 296 296 291 278 273 268 267 261 259 266 267 272 276 283 291 286 274 269 270 266 265 267
343 353 348 343 339 330 330 331 321 303 304 299 301 301 301 299 297 295 299 307 305 296 259 245 247 252 264 268 272 279 280 277 278 272 274 275 269 261
35 17 346 337 337 332 327 321 316 316 313 304 302 303 303 302 299 298 288 293 290 296 303 295 250 245 251 261 271 272 274 275 274 277 279 281 275 264
16 355 334 328 324 321 320 319 315 309 306 304 301 297 297 298 300 299 290 291 292 293 293 298 302 301 283 259 238 257 268 274 279 279 276 281 282 273
14 327 313 308 305 303 301 301 300 299 299 295 292 292 293 294 295 298 299 297 295 294 292 292 294 295 301 305 275 235 257 279 285 285 280 276 279 280
322 303 299 298 298 297 297 296 297 299 297 294 291 291 290 292 295 295 296 296 297 298 299 296 289 290 292 296 296 290 273 270 280 285 287 283 278 278
307 298 292 291 292 290 290 290 291 292 292 292 292 290 291 291 292 293 295 297 298 298 299 299 294 296 294 291 291 293 292 276 273 281 287 289 290 288
297 297 295 290 291 289 288 289 290 290 290 289 289 290 290 289 290 293 294 296 297 295 295 296 295 298 297 298 298 300 303 304 298 290 280 274 279 284
293 293 291 291 288 286 285 284 285 287 286 286 288 289 290 290 290 291 292 292 293 296 301 304 304 301 299 297 299 300 301 305 308 309 302 290 280 272
Height
1485 1488 1491 1493 1495 1496 1498 1499 1501 1500 1499 1500 1500 1498 1497 1494 1492 1488 1484 1481 1478 1475 1473 1470 1467 1465 1463 1461 1460 1458 1457 1456 1455 1454 1453 1453 1452 1452
1479 1481 1484 1487 1489 1490 1492 1494 1495 1495 1494 1493 1493 1493 1490 1488 1485 1480 1476 1473 1469 1466 1464 1461 1459 1456 1454 1452 1451 1449 1448 1447 1445 1444 1444 1443 1443 1442
1473 1476 1478 1481 1484 1486 1486 1487 1488 1489 1487 1486 1486 1485 1483 1480 1477 1473 1469 1465 1461 1459 1456 1453 1450 1447 1445 1443 1442 1440 1439 1437 1436 1435 1434 1433 1433 1432
1468 1472 1475 1477 1479 1481 1482 1482 1483 1482 1481 1479 1478 1477 1475 1472 1468 1465 1461 1457 1453 1451 1448 1445 1442 1439 1437 1435 1433 1431 1429 1428 1426 1425 1424 1422 1422 1421
1466 1469 1471 1473 1475 1476 1476 1476 1476 1476 1475 1473 1471 1470 1467 1465 1460 1456 1453 1449 1446 1443 1440 1437 1434 1431 1429 1427 1425 1422 1420 1418 1416 1414 1412 1411 1410 1409
1464 1466 1468 1469 1470 1470 1470 1470 1470 1469 1469 1467 1465 1462 1459 1456 1453 1448 1443 1440 1437 1435 1432 1429 1426 1424 1422 1419 1416 1412 1410 1407 1405 1403 1402 1400 1399 1398
1462 1463 1464 1465 1465 1465 1465 1465 1464 1464 1463 1461 1458 1455 1452 1449 1446 1442 1437 1432 1428 1427 1423 1420 1417 1414 1412 1409 1406 1403 1400 1397 1395 1393 1391 1390 1389 1388
1459 1460 1460 1460 1461 1461 1460 1460 1460 1459 1457 1455 1451 1448 1445 1443 1440 1436 1432 1426 1421 1419 1416 1411 1410 1405 1402 1400 1397 1393 1390 1387 1385 1383 1381 1379 1377 1376
1456 1457 1457 1457 1457 1456 1455 1454 1454 1453 1452 1450 1446 1442 1439 1437 1434 1429 1426 1421 1417 1414 1410 1401 1400 1396 1394 1390 1388 1384 1381 1378 1375 1372 1370 1368 1366 1364
1454 1454 1455 1454 1453 1451 1449 1448 1447 1446 1445 1442 1439 1436 1433 1431 1428 1425 1420 1415 1410 1407 1404 1395 1390 1387 1383 1380 1378 1375 1372 1369 1365 1362 1359 1357 1355 1353
1452 1452 1451 1450 1448 1446 1445 1443 1442 1440 1439 1436 1433 1431 1428 1426 1423 1418 1413 1408 1401 1398 1397 1390 1382 1377 1371 1368 1367 1365 1362 1359 1355 1352 1348 1345 1343 1341
1449 1449 1447 1445 1444 1442 1441 1439 1436 1434 1432 1429 1427 1425 1422 1419 1416 1412 1408 1402 1396 1389 1387 1383 1376 1371 1360 1353 1354 1353 1351 1348 1344 1341 1337 1334 1331 1328
1446 1445 1443 1441 1440 1439 1437 1434 1432 1429 1426 1423 1421 1418 1416 1413 1410 1407 1403 1398 1392 1385 1382 1378 1370 1366 1360 1348 1342 1342 1340 1336 1332 1328 1325 1322 1320 1317
1443 1441 1439 1438 1436 1434 1432 1429 1427 1424 1421 1419 1416 1413 1410 1407 1404 1400 1397 1392 1387 1381 1376 1372 1365 1360 1353 1345 1337 1331 1330 1326 1322 1317 1314 1312 1309 1307
1439 1437 1436 1434 1432 1429 1427 1425 1422 1420 1417 1414 1411 1408 1405 1401 1398 1394 1390 1385 1379 1375 1370 1365 1359 1353 1348 1340 1332 1325 1319 1315 1313 1308 1305 1301 1297 1295
1436 1434 1432 1430 1428 1426 1424 1422 1419 1417 1414 1411 1407 1404 1401 1397 1393 1388 1382 1377 1370 1365 1363 1358 1352 1346 1340 1334 1327 1318 1313 1307 1302 1299 1294 1289 1286 1283
1433 1431 1429 1427 1425 1423 1421 1419 1417 1414 1412 1408 1404 1400 1396 1392 1388 1384 1378 1372 1365 1358 1353 1350 1345 1339 1333 1327 1319 1312 1305 1299 1294 1290 1284 1278 1275 1273
1431 1429 1426 1424 1422 1420 1418 1416 1414 1412 1408 1405 1401 1397 1393 1388 1383 1379 1374 1367 1361 1354 1348 1342 1337 1330 1323 1317 1312 1304 1298 1291 1285 1281 1276 1270 1263 1261
1429 1426 1424 1422 1420 1418 1416 1414 1411 1409 1405 1401 1398 1394 1389 1384 1379 1373 1368 1362 1355 1349 1342 1337 1331 1325 1317 1308 1301 1298 1291 1283 1278 1272 1267 1262 1255 1249
1427 1425 1423 1421 1418 1416 1414 1411 1408 1405 1402 1398 1394 1390 1385 1380 1374 1369 1363 1357 1350 1343 1336 1331 1326 1321 1315 1306 1295 1287 1285 1278 1272 1265 1258 1252 1246 1241
1425 1423 1421 1418 1416 1413 1411 1408 1405 1401 1398 1394 1390 1385 1381 1376 1370 1364 1358 1352 1346 1339 1332 1325 1320 1316 1309 1300 1291 1280 1275 1272 1266 1259 1251 1245 1238 1232
1422 1420 1418 1416 1413 1410 1407 1404 1401 1397 1393 1389 1385 1381 1376 1371 1365 1359 1353 1347 1340 1334 1327 1319 1313 1308 1302 1295 1286 1276 1267 1261 1256 1251 1246 1240 1234 1226
1420 1417 1415 1413 1410 1407 1404 1400 1397 1393 1389 1385 1380 1376 1371 1365 1360 1354 1348 1342 1335 1328 1322 1314 1307 1301 1295 1289 1281 1271 1262 1255 1247 1240 1235 1232 1227 1221